Showing default

COSMOS 1693, 16141

Orbit data source: Space-Track

COSMOS 1693, 16141 is a payload satellite owned by GUKOS (CIS) in LEO that was launched on Wed, 09 Oct 1985 UTC via a TSIKLON-3 launch vehicle from the Plesetsk Missile And Space Complex (PKMTR). Payload-class satellites include a variety of spacecraft equipped with specific instruments for various scientific and technological missions. These include communications satellites like Starlink; space stations such as the ISS; scientific satellites like the Hubble; Earth observation satellites from companies like Planet Labs, Umbra, and HawkEye 360; GPS; miniature CubeSats for education and research; and military/defense satellites.

Loading next visibility...
Identifier
16141, 1985-094D
Orbit
LEO
Country
Flag of CISCIS
Related business
Manufacturer
NPO PM
Mission
Spacecraft
Bus & Motor
STRELA-3, Unknown motor
Mass
225 kg wet, 225 kg dry
Launch date (UTC)
1985-10-09 (41 years ago)
Launch vehicle
TSIKLON-3
Launch site
Plesetsk Missile And Space Complex (PKMTR)
Object type
Payload
Rocket body
Debris
Shape & HBR
Unknown
Radar Cross Section
Medium (>0.1 m² and <1 m²)

Expand to show TLE details & history
Last TLE update: 15 hours ago

TLE from 15 hours ago
0 COSMOS 1693
1 16141U 85094D   26127.17542455  .00000020  00000-0  50158-4 0  9995
2 16141  82.6076 278.5888 0015723 126.5129  46.9073 12.64358819872355
Epoch: 2026-05-07T04:12Z
TLE epoch observation values (Epoch: 2026-05-07T04:12:36.681Z)
Latitude
6.32204°
Longitude
169.59109°
Altitude
1,398.791 km
Speed
7.165 km/s
True Right ascension
06h 31m 04s
True Declination
6° 17' 15"
Sunlit
Object was in daylight at epoch
Visualization orbit readout
Latitude
Unknown
Longitude
Unknown
Altitude
Unknown
Speed
Unknown
Apparent Right ascension
Unknown
Apparent Declination
Unknown
Sunlit
N/A
Visualization observer readout
Local Sidereal Time
03:31:55
Azimuth
Unknown
Elevation
Unknown
Doppler factor
Unknown
Orbital elements
Apogee altitude
1,414.555 km
Perigee altitude
1,390.088 km
Semi-major axis
7,780.459 km
Eccentricity
0.00157
Inclination
82.6076°
RAAN
278.5888°
Arg. of periapsis
126.5129°
True anomaly
47.03905°
Mean anomaly
46.9073°
Eccentric anomaly
46.97316°
Mean motion
3.16254 °/min
Orbital period
113.83 mins
BSTAR
0.000050158
Loading maneuver chart data...
Computing Atmospheric mass density...
Loading historical data...
Loading historical data...
Loading historical data...
Loading historical data...
Loading historical data...
Loading historical data...
Loading historical data...

Documentation

Showing up to 5 results
|